Tracking 23885 objects as of 28-Nov-2021
HD Live streaming from Space Station
objects crossing your sky now

METEOR 2-11 DEB

Track METEOR 2-11 DEB now!
10-day predictions


NORAD ID: 45517
Int'l Code: 1984-072X
Perigee: 918.4 km
Apogee: 942.6 km
Inclination: 82.5 °
Period: 103.5 minutes
Semi major axis: 7301 km
RCS: Unknown
Launch date: July 5, 1984
Source: Commonwealth of Independent States (former USSR) (CIS)
Launch site: PLESETSK MISSILE AND SPACE COMPLEX (PKMTR)

Note: This is SATELLITE DEBRIS
aabbcc
Your satellite tracking list
Your tracking list is empty




NASA's NSSDC Master Catalog

Two Line Element Set (TLE):
1 45517U 84072X   21331.60526825  .00002444  00000-0  19178-2 0  9999
2 45517  82.5210 266.5213 0016511  15.9519 159.9888 13.91506155686634
Source of the keplerian elements: AFSPC